Weather History for Chapel Hill, NC

Change the Weather History Date:

Saturday, January 11, 2014

  Actual Average Record
Temperature  
Mean Temperature 55 °F -  
Max Temperature 66 °F 45 °F 71 °F (1949)
Min Temperature 44 °F 25 °F 0 °F (1982)
Degree Days  
Heating Degree Days 10    
Growing Degree Days 5 (Base 50)    
Moisture  
Dew Point 53 °F    
Average Humidity 94    
Maximum Humidity 100    
Minimum Humidity 86    
Precipitation  
Precipitation 0.87 in - - ()
Sea Level Pressure  
Sea Level Pressure 29.80 in    
Wind  
Wind Speed 3 mph (West)    
Max Wind Speed 23 mph    
Max Gust Speed 36 mph    
Visibility 5 miles    
Events Fog , Rain , Thunderstorm    
Averages and records for this station are not official NWS values.
T = Trace of Precipitation, MM = Missing Value Source: NWS Daily Summary

Daily Weather History Graph

Daily Weather History Graph

Search for Another Location

Airport:

Trip Planner

Search our weather history database for the weather conditions in past years. The results will help you decide how hot, cold, wet, or windy it might be!

Date:

Astronomy

Jan. 11, 2014 Rise Set
Actual Time 7:26 AM EST 5:21 PM EST
Civil Twilight 6:58 AM EST 5:49 PM EST
Nautical Twilight 6:27 AM EST 6:21 PM EST
Astronomical Twilight 5:56 AM EST 6:52 PM EST
Moon 2:03 PM EST (1/11) 3:31 AM EST (1/11)
Length of Visible Light 10h 51m
Length of Day
9h 55m
Waxing Gibbous, 83% of the Moon is Illuminated
Jan 11
Waxing Gibbous
Jan 15
Full
Jan 24
Last Quarter
Jan 30
New
Feb 6
First Quarter

Hourly Weather History & Observations

Time (EST) Temp. Windchill Dew Point Humidity Pressure Visibility Wind Dir Wind Speed Gust Speed Precip Events Conditions
12:34 AM 45.0 °F - 44.1 °F 97% 30.09 in 1.8 mi Calm Calm - 0.08 in Rain Light Rain
12:49 AM 44.1 °F 41.5 °F 43.0 °F 96% 30.08 in 3.0 mi West 4.6 mph - 0.15 in Rain Light Rain
12:56 AM 44.1 °F 40.8 °F 43.0 °F 96% 30.08 in 5.0 mi WNW 5.8 mph - 0.16 in Rain Light Rain
1:19 AM 44.1 °F - 43.0 °F 96% 30.06 in 6.0 mi Calm Calm - 0.00 in Rain Light Rain
1:54 AM 44.6 °F - 42.8 °F 93% 30.04 in 7.0 mi Calm Calm - 0.04 in Rain Light Rain
1:56 AM 44.1 °F 42.5 °F 43.0 °F 96% 30.03 in 6.0 mi East 3.5 mph - 0.04 in Rain Light Rain
2:22 AM 45.0 °F - 44.1 °F 97% 30.02 in 1.8 mi Calm Calm - 0.00 in   Overcast
2:34 AM 45.0 °F - 44.1 °F 97% 30.02 in 0.8 mi Calm Calm - 0.00 in   Mist
2:56 AM 45.0 °F - 44.1 °F 97% 30.01 in 0.8 mi Calm Calm - 0.00 in   Mist
3:04 AM 45.0 °F - 44.1 °F 97% 30.00 in 0.5 mi Calm Calm - 0.00 in Fog , Rain Light Rain
3:56 AM 44.1 °F - 43.0 °F 96% 29.99 in 0.2 mi Calm Calm - 0.00 in Fog Fog
4:56 AM 45.0 °F - 44.1 °F 97% 29.95 in 0.2 mi Calm Calm - 0.00 in Fog Fog
5:56 AM 45.0 °F 43.5 °F 44.1 °F 97% 29.91 in 0.2 mi Variable 3.5 mph - N/A Fog Fog
6:56 AM 46.0 °F - 45.0 °F 96% 29.89 in 0.5 mi Calm Calm - N/A Fog Fog
7:56 AM 50.0 °F - 50.0 °F 100% 29.86 in 0.2 mi Calm Calm - N/A Fog Fog
8:47 AM 60.1 °F - 59.0 °F 96% 29.85 in 1.0 mi Variable 5.8 mph - N/A   Overcast
8:56 AM 60.1 °F - 59.0 °F 96% 29.85 in 3.0 mi Calm Calm - N/A   Overcast
9:12 AM 61.0 °F - 60.1 °F 97% 29.85 in 5.0 mi Variable 4.6 mph - N/A Thunderstorm Overcast
9:28 AM 61.0 °F - 60.1 °F 97% 29.85 in 6.0 mi West 5.8 mph - N/A   Overcast
9:39 AM 61.0 °F - 60.1 °F 97% 29.85 in 1.8 mi West 8.1 mph - 0.02 in Rain Rain
9:53 AM 59.0 °F - 57.2 °F 94% 29.85 in 3.0 mi Calm Calm - 0.04 in Rain Light Rain
9:56 AM 59.0 °F - 57.9 °F 96% 29.84 in 5.0 mi Calm Calm - 0.04 in Rain Light Rain
10:11 AM 57.9 °F - 57.0 °F 97% 29.84 in 3.0 mi West 6.9 mph - 0.02 in Rain Light Rain
10:27 AM 57.9 °F - 57.0 °F 97% 29.83 in 1.8 mi Calm Calm - 0.06 in Rain Rain
10:38 AM 57.9 °F - 57.0 °F 97% 29.82 in 3.0 mi Calm Calm - 0.08 in Rain Light Rain
10:47 AM 57.0 °F - 57.0 °F 100% 29.82 in 1.8 mi Calm Calm - 0.10 in Rain Rain
10:56 AM 57.9 °F - 57.0 °F 97% 29.81 in 0.8 mi Variable 3.5 mph - 0.19 in Rain Heavy Rain
11:05 AM 59.0 °F - 57.9 °F 96% 29.78 in 2.0 mi Variable 3.5 mph - 0.01 in Rain Light Rain
11:12 AM 60.1 °F - 59.0 °F 96% 29.78 in 6.0 mi Variable 3.5 mph - 0.01 in Rain Light Rain
11:19 AM 61.0 °F - 60.1 °F 97% 29.76 in 9.0 mi Variable 5.8 mph - 0.01 in   Overcast
11:56 AM 64.0 °F - 63.0 °F 96% 29.71 in 9.0 mi Variable 5.8 mph - 0.01 in Rain Light Rain
12:56 PM 66.9 °F - 63.0 °F 87% 29.65 in 10.0 mi South 9.2 mph - 0.01 in   Overcast
1:43 PM 66.0 °F - 63.0 °F 90% 29.69 in 0.5 mi West 23.0 mph 35.7 mph 0.27 in Fog , Rain Rain
1:54 PM 59.0 °F - 55.4 °F 88% 29.68 in 1.2 mi West 17.3 mph 29.9 mph 0.33 in Rain Light Rain
1:56 PM 59.0 °F - 55.9 °F 90% 29.68 in 4.0 mi WNW 13.8 mph 29.9 mph 0.33 in Rain Light Rain
1:58 PM 59.0 °F - 55.9 °F 90% 29.68 in 7.0 mi West 15.0 mph 29.9 mph 0.00 in Rain Light Rain
2:30 PM 57.9 °F - 54.0 °F 87% 29.70 in 10.0 mi Variable 6.9 mph - 0.01 in   Mostly Cloudy
2:56 PM 57.0 °F - 55.0 °F 93% 29.70 in 6.0 mi Variable 4.6 mph - 0.02 in Rain Light Rain
3:04 PM 57.0 °F - 54.0 °F 89% 29.72 in 8.0 mi Variable 5.8 mph - 0.01 in Rain Light Rain
3:56 PM 57.0 °F - 54.0 °F 89% 29.69 in 10.0 mi Variable 4.6 mph - 0.01 in Rain Light Rain
4:56 PM 55.9 °F - 55.0 °F 97% 29.61 in 8.0 mi Variable 4.6 mph - 0.06 in Rain Light Rain
5:56 PM 55.9 °F - 54.0 °F 93% 29.63 in 10.0 mi Variable 3.5 mph - 0.00 in   Partly Cloudy
6:56 PM 55.9 °F - 53.1 °F 90% 29.62 in 10.0 mi Variable 3.5 mph - N/A   Clear
7:51 PM 55.4 °F - 53.6 °F 94% 29.63 in 10.0 mi Variable 4.6 mph - N/A   Mostly Cloudy
7:56 PM 55.0 °F - 53.1 °F 93% 29.63 in 10.0 mi Variable 3.5 mph - N/A   Mostly Cloudy
8:22 PM 55.9 °F - 53.1 °F 90% 29.65 in 10.0 mi Variable 6.9 mph - N/A   Overcast
8:32 PM 55.9 °F - 53.1 °F 90% 29.65 in 10.0 mi Variable 5.8 mph - N/A   Overcast
8:56 PM 55.9 °F - 53.1 °F 90% 29.65 in 10.0 mi Variable 4.6 mph - N/A   Overcast
9:26 PM 55.9 °F - 53.1 °F 90% 29.66 in 10.0 mi Variable 5.8 mph - N/A   Overcast
9:33 PM 55.9 °F - 53.1 °F 90% 29.66 in 10.0 mi Variable 3.5 mph - N/A   Overcast
9:52 PM 55.4 °F - 51.8 °F 88% 29.65 in 10.0 mi Variable 4.6 mph - N/A   Overcast
9:56 PM 55.9 °F - 52.0 °F 87% 29.65 in 10.0 mi Variable 5.8 mph - N/A   Overcast
10:56 PM 55.0 °F - 51.1 °F 86% 29.66 in 10.0 mi Variable 4.6 mph - N/A   Mostly Cloudy
11:56 PM 54.0 °F - 51.1 °F 90% 29.67 in 10.0 mi WSW 3.5 mph - N/A   Mostly Cloudy